Regional Weather Roundup
Issued by NWS

Home | Current Version | Previous Version | Text Only | Print | Product List | Glossary On
Versions: 1 2 3 4 5 6 7 8 9 10 11 12 13 14 15 16 17 18 19 20 21 22 23 24 25 26 27 28 29 30 31 32 33 34 35 36 37 38 39 40 41 42 43 44 45 46 47 48 49 50
000
ASCA42 TJSJ 011810
RWRPR
PUERTO RICO/U.S. VIRGIN ISLANDS HOURLY WEATHER ROUNDUP
NATIONAL WEATHER SERVICE SAN JUAN PR
200 PM AST WED MAR 01 2017

PRZ001>002-007>008-010-011900-
PUERTO RICO

CITY           SKY/WX    TMP DP  RH WIND       PRES   REMARKS
SAN JUAN LMM   MOSUNNY   84  72  65 E18G28    30.06F
AGUADILLA      MOSUNNY   82  68  61 E21       30.07F
CEIBA          MOSUNNY   88  70  55 E12       30.09F HX  92
$$

VIZ001>002-011900-
U.S. VIRGIN ISLANDS

CITY           SKY/WX    TMP DP  RH WIND       PRES   REMARKS
CHARLOTTE AMA  MOSUNNY   86  68  54 E16G28    30.05F
CHRISTIANSTED  MOSUNNY   84  66  54 E20G28    30.05F
$$

HOURLY WEATHER ROUNDUP FOR THE NEWS MEDIA

CITY           SKY/WX    TMP DP  RH WIND       PRES   REMARKS
ORLANDO        SUNNY     84  57  39 SE9       30.13F
NEW YORK       FOG       51  51 100 SE9       29.62F VSB 1
NEWARK         CLOUDY    63  59  87 S9        29.58F
CHICAGO        CLOUDY    41  35  79 W18G25    29.59R
HARTFORD       LGT RAIN  52  51  97 S14       29.64F VSB 1
BOSTON         CLOUDY    59  54  83 SW16G25   29.52F
DALLAS         MOSUNNY   63  23  21 N17G25    30.23R
PHILADELPHIA   PTSUNNY   72  60  66 SW22G32   29.60F
LOS ANGELES    SUNNY     64  38  38 VRB6      30.28S
WASHINGTON DC  PTSUNNY   73  57  57 S23G33    29.61F


USA.gov is the U.S. government's official web portal to all federal, state and local government web resources and services.